Theta_e
317 317 319 318 319 321 322 324 324 325 326 326 326 325 325 326 325 319 310 319 322 330 327 319 318 317 318 315 320 320 311 308 309 308 310 313 311 314 316 313 316 319 319 325 332
317 318 318 319 319 320 321 322 324 324 325 326 326 325 325 326 318 309 320 328 330 330 319 314 311 314 312 311 315 314 311 310 314 315 311 313 313 313 312 312 314 317 324 328 332
316 317 318 319 319 319 320 321 322 323 324 325 326 325 324 324 310 302 325 328 331 328 322 318 315 311 308 310 311 311 308 315 313 315 315 313 313 316 313 311 314 315 320 325 329
314 315 317 318 319 319 318 320 321 322 323 324 325 324 323 319 290 315 326 328 329 324 319 314 311 306 305 304 309 305 310 311 314 315 314 312 315 313 314 316 319 320 321 325 326
313 313 315 316 317 317 317 318 320 321 322 323 324 323 318 306 303 318 322 325 323 321 313 311 307 306 302 304 306 305 306 309 312 314 314 314 312 313 314 318 319 319 322 324 325
314 313 313 315 315 316 316 317 319 320 320 321 323 323 313 300 314 316 318 319 320 317 313 313 309 309 305 303 303 305 306 307 310 310 314 312 313 312 315 319 318 318 319 323 324
313 314 313 314 315 315 316 317 319 319 319 320 323 317 309 306 318 320 320 316 319 318 313 315 315 309 307 303 307 306 301 304 306 307 308 313 308 310 316 317 316 316 319 320 323
312 313 314 314 315 315 315 315 317 318 318 319 321 315 302 315 318 317 319 316 320 320 318 318 317 312 308 309 305 301 301 296 302 305 308 309 298 307 316 317 315 316 317 319 321
312 312 312 313 314 315 315 315 316 316 316 318 315 310 301 315 309 314 317 313 316 318 319 317 317 308 308 300 298 300 293 295 298 305 304 305 298 305 309 310 313 317 318 318 319
311 311 311 311 313 314 314 314 314 314 314 314 313 304 307 304 309 311 315 318 311 314 313 311 309 303 302 298 290 293 294 296 296 299 301 301 301 304 305 307 307 309 314 317 319
311 310 310 311 311 313 312 310 303 301 305 300 301 302 305 308 311 308 312 314 313 308 299 305 297 293 296 299 298 297 296 295 299 302 298 299 299 301 305 306 306 307 307 308 312
311 310 310 310 311 312 310 301 302 304 295 303 304 304 307 308 302 306 312 304 303 297 301 299 294 297 299 299 298 296 294 294 298 299 297 298 298 301 303 304 305 306 308 308 309
310 310 310 310 310 309 305 303 310 308 295 297 301 301 303 306 301 302 307 305 301 297 297 294 296 300 298 297 296 296 293 292 292 296 298 296 293 296 300 303 305 306 308 308 309
310 310 310 310 303 306 303 309 309 309 288 290 294 298 303 305 299 307 309 306 301 296 297 297 300 297 297 295 296 290 297 296 294 292 287 295 285 293 297 298 301 303 305 306 308
310 310 310 309 303 302 305 310 308 302 276 292 294 304 302 299 300 301 310 304 297 297 297 294 296 295 294 295 298 293 298 296 296 293 291 291 288 291 296 294 297 300 303 305 307
309 309 309 307 306 306 310 308 302 281 276 287 294 293 294 297 298 302 302 306 304 298 299 297 302 299 297 298 299 299 296 296 295 292 284 289 288 288 293 295 297 300 302 303 305
309 309 307 307 298 309 307 297 281 276 287 284 287 291 291 291 293 296 295 294 292 287 287 293 295 299 300 295 299 297 292 284 283 283 281 289 288 290 296 297 298 298 300 303 304
308 308 306 306 308 309 302 285 276 282 283 290 290 290 287 290 291 293 293 290 295 294 289 286 284 294 299 296 292 293 291 284 277 279 282 288 283 289 297 300 300 301 301 303 303
308 306 303 305 308 307 292 278 280 282 286 288 289 284 285 289 289 290 290 290 293 295 287 286 286 297 297 299 297 292 288 294 286 283 281 285 289 295 297 297 298 299 300 301 302
302 299 298 305 308 300 285 281 284 287 288 290 284 287 282 286 286 287 287 292 292 296 297 291 285 293 296 298 298 295 297 286 287 278 277 283 285 287 292 294 296 298 299 301 303
298 290 299 305 303 290 281 283 285 289 289 286 286 286 287 286 287 286 286 291 293 293 296 294 289 288 294 291 291 291 289 290 291 287 281 280 285 294 294 295 296 297 299 301 302
296 285 294 301 286 285 283 285 288 287 289 288 289 288 288 288 287 287 286 290 295 295 290 294 289 284 287 295 297 295 292 291 285 284 287 285 286 296 297 297 297 298 300 301 301
288 287 291 296 281 282 283 284 286 286 286 287 286 289 288 287 283 288 289 293 294 293 291 293 286 281 284 288 292 290 292 293 293 291 285 282 286 298 299 299 300 299 300 300 300
293 283 285 287 287 285 282 281 282 287 287 287 286 289 287 285 287 286 287 290 293 292 294 292 288 285 281 285 288 286 289 291 290 285 286 287 289 294 296 297 299 299 301 302 301
292 285 287 281 283 285 284 283 281 281 287 287 285 285 284 281 283 283 286 288 292 293 293 290 283 284 284 284 285 285 287 288 287 289 285 287 289 293 295 297 299 301 301 301 301
287 287 289 285 285 286 284 283 281 282 284 282 282 284 285 281 284 282 285 286 286 290 289 290 282 283 279 284 284 283 285 286 289 289 288 288 290 298 299 300 300 301 301 301 300
295 295 291 284 285 284 283 283 284 286 287 288 287 285 284 286 289 289 289 290 290 287 286 286 284 281 277 283 282 278 283 285 286 288 289 285 291 297 296 296 298 300 301 301 301
Wind_Speed
11 11 12 10 9 6 7 7 7 5 7 6 4 4 4 8 11 9 9 4 7 11 12 11 10 7 8 5 4 4 6 7 3 5 3 9 10 5 1 3 6 6 2 5 17
12 12 12 12 10 8 6 5 6 6 8 7 6 4 5 5 10 12 4 8 9 8 8 8 8 7 6 5 4 6 8 9 4 3 2 9 10 10 7 10 9 9 8 7 14
8 11 11 12 10 9 8 5 4 5 5 8 6 5 5 7 8 2 5 9 10 8 7 6 8 4 6 6 7 4 11 12 7 4 2 5 9 5 9 9 10 11 15 13 14
2 6 8 10 10 9 6 6 5 5 4 7 6 5 3 6 6 3 4 7 3 8 10 5 6 4 5 10 7 9 11 10 6 1 3 6 4 8 13 9 5 6 4 16 16
4 2 6 8 9 8 6 6 6 6 4 5 7 6 4 7 7 2 5 4 1 5 12 11 10 9 8 6 6 10 13 7 6 5 7 2 9 12 12 13 5 2 5 14 14
8 6 4 7 8 7 7 8 6 4 3 3 9 7 7 10 3 3 4 4 3 3 6 8 4 6 9 6 10 3 8 10 6 9 6 7 11 3 11 13 12 8 10 11 14
9 8 8 6 9 8 7 7 7 3 1 3 10 6 7 9 2 3 1 1 3 4 4 3 4 7 2 5 5 4 8 7 11 10 10 7 14 15 14 2 12 14 11 11 12
8 8 9 7 9 9 6 5 5 5 4 1 10 2 5 2 6 4 2 3 0 2 3 2 3 4 5 2 4 6 6 13 8 11 6 8 19 17 16 15 14 14 13 12 12
9 7 8 10 9 10 7 5 4 4 2 4 6 4 4 0 7 9 3 2 3 1 1 3 4 5 4 7 7 9 12 16 13 10 9 14 13 14 10 12 18 17 14 14 13
10 8 10 10 11 11 9 5 3 3 4 4 1 4 6 6 4 5 10 4 3 5 3 5 5 7 9 11 12 13 14 17 13 4 11 15 17 14 3 9 16 16 17 18 16
13 11 11 10 10 10 8 5 4 5 10 9 3 8 4 2 3 5 10 7 5 8 9 10 9 14 18 19 16 13 13 15 13 1 5 15 18 20 16 19 18 16 16 18 18
15 13 12 11 10 7 10 4 10 4 7 16 6 6 3 3 3 5 10 10 10 13 11 7 18 16 11 12 15 18 15 15 12 1 5 13 19 18 18 18 20 21 20 20 17
16 14 13 12 7 5 14 10 7 6 6 11 19 10 5 4 4 10 13 11 10 14 15 16 1 5 10 10 11 16 18 14 13 3 12 13 23 23 22 25 22 21 20 20 20
18 16 14 11 4 9 15 15 3 5 4 11 11 11 10 3 6 8 12 9 7 16 14 12 16 3 11 16 13 16 14 13 13 7 9 2 12 15 9 8 17 14 17 20 21
18 17 17 17 4 12 5 11 8 3 8 13 15 6 17 16 11 10 12 11 8 11 8 8 8 15 13 13 11 8 1 6 11 13 12 18 12 6 11 14 13 14 18 18 17
18 18 17 12 7 6 11 13 6 4 7 7 9 16 20 19 16 8 8 8 5 7 15 14 2 9 12 9 11 3 5 3 4 6 10 15 15 15 16 17 14 16 17 15 15
20 19 15 9 8 9 12 6 3 7 3 7 10 16 23 16 23 13 14 12 8 5 5 6 12 2 5 10 8 13 11 4 6 6 11 3 14 22 6 10 7 10 10 10 9
20 17 11 8 7 15 9 3 9 3 3 8 10 15 19 16 25 19 16 16 20 14 5 10 10 18 12 13 7 18 16 7 8 7 7 2 13 10 4 9 11 12 10 9 8
20 8 6 8 11 9 5 9 3 2 4 7 14 13 9 16 9 22 22 19 17 22 14 11 12 7 8 12 13 10 16 17 8 2 5 9 13 15 9 10 13 13 10 9 10
9 8 5 8 12 7 4 5 4 2 6 9 9 9 8 18 14 17 14 14 19 20 21 9 8 5 16 10 17 15 7 9 8 8 10 13 17 13 7 9 12 14 12 10 6
9 5 5 9 5 4 5 3 4 1 1 3 8 5 11 17 17 19 12 9 19 18 19 11 7 3 5 14 17 12 5 8 8 12 10 12 10 7 8 8 8 9 6 7 4
6 5 4 7 4 1 6 5 3 4 3 4 4 2 11 16 17 14 15 10 8 18 13 19 6 10 16 7 15 21 18 14 8 13 11 16 17 7 4 5 4 3 4 5 5
5 4 4 3 6 4 1 4 2 4 2 6 6 5 5 4 3 12 6 3 2 2 1 10 5 12 9 3 5 9 14 17 20 17 17 10 15 10 11 8 12 14 7 4 5
4 4 2 3 2 6 6 3 5 2 4 4 2 3 4 1 1 1 8 4 4 7 10 7 4 11 13 14 7 9 16 18 15 8 16 18 28 22 17 18 15 13 12 8 6
4 2 1 5 3 4 4 3 6 5 1 5 3 3 1 2 3 5 8 4 4 7 5 8 4 3 9 10 14 19 18 15 20 23 23 25 28 27 21 20 17 15 14 13 12
3 4 5 4 6 6 5 5 5 2 5 3 5 3 4 5 7 4 5 7 8 8 9 9 8 6 15 16 12 15 16 15 15 22 24 26 28 28 24 22 23 19 13 13 13
2 2 4 4 6 6 4 5 6 6 5 1 4 4 5 8 10 15 14 9 10 8 11 7 4 5 15 9 5 7 11 13 15 19 21 25 23 23 23 20 19 21 21 18 16
Wind_Direction
261 264 258 260 250 243 274 288 301 280 242 246 245 268 295 310 303 271 266 339 319 335 321 296 284 307 290 280 289 290 267 257 247 225 138 157 190 179 88 228 205 172 317 52 131
256 256 268 252 263 253 250 266 294 309 249 239 240 250 286 314 289 270 307 330 311 312 319 317 301 321 269 258 255 257 258 268 336 300 235 177 211 167 197 203 209 188 136 144 149
260 262 258 249 251 256 248 249 263 296 301 231 225 250 287 311 281 215 14 309 296 286 268 303 290 267 253 259 232 231 252 264 244 267 241 215 215 206 216 221 226 208 179 171 175
282 248 255 263 257 248 266 262 250 262 287 239 209 221 266 253 247 105 355 345 276 262 225 251 246 229 240 227 232 254 250 274 294 254 229 223 244 214 231 232 37 230 202 173 184
192 251 258 250 268 267 282 282 263 256 267 262 194 194 209 227 251 106 327 1 343 233 215 221 235 235 224 236 216 241 262 265 254 262 247 283 229 236 235 242 155 176 194 183 195
253 219 227 255 248 260 276 279 263 247 231 250 189 177 231 241 22 300 326 318 13 234 226 222 247 258 289 232 231 22 271 253 254 245 244 245 238 188 238 236 224 202 205 202 210
268 244 246 232 234 231 255 276 256 213 157 198 186 200 235 233 31 355 230 269 343 302 234 244 305 231 314 244 234 266 264 228 239 233 245 255 250 228 246 207 235 219 223 217 212
265 275 238 228 238 215 220 251 266 226 187 172 180 203 240 355 288 274 279 203 218 271 288 262 249 264 253 32 201 232 245 243 225 202 214 205 255 238 229 243 240 236 223 215 220
239 240 256 245 244 219 194 213 255 243 241 179 176 182 243 350 224 226 213 268 180 168 303 228 228 237 199 221 226 215 248 228 239 198 230 212 253 243 236 240 250 243 236 229 224
226 232 230 247 250 213 190 188 139 177 209 193 246 218 196 216 188 215 196 208 195 166 142 194 216 217 220 210 221 234 232 247 223 168 237 240 247 255 215 266 258 253 248 244 229
221 215 227 235 242 231 133 128 151 217 215 211 219 231 61 81 189 203 176 177 196 214 202 197 222 206 212 216 234 285 279 249 237 185 275 248 251 256 254 253 249 252 257 254 247
214 206 215 221 238 218 187 219 188 356 206 234 243 264 241 333 186 193 177 186 196 210 206 195 235 242 240 238 235 244 254 249 258 294 263 273 268 265 254 254 252 252 248 250 250
210 198 201 207 226 204 203 189 217 296 250 196 217 222 200 208 221 188 189 198 202 208 203 220 234 254 225 223 225 238 240 249 251 277 258 276 276 259 248 245 246 248 250 251 252
206 190 189 189 196 197 212 196 346 336 253 195 196 220 184 197 244 192 204 186 222 218 211 239 238 206 207 230 218 242 226 253 271 263 260 88 286 278 271 267 228 236 247 247 240
202 186 181 183 174 193 160 171 80 52 231 172 165 163 174 189 130 183 191 214 225 195 185 212 199 215 226 226 213 252 107 227 241 251 276 258 262 264 244 255 254 234 235 242 243
197 180 176 193 235 196 154 120 95 215 217 145 137 181 173 197 205 127 171 219 257 247 214 235 27 216 219 212 214 155 162 176 226 246 250 243 241 260 246 247 240 244 252 250 248
186 172 172 185 204 161 130 91 222 240 211 153 176 182 189 183 194 187 188 188 197 195 211 245 238 191 219 192 204 191 182 186 215 199 249 235 224 247 278 288 263 264 273 271 253
168 164 182 189 167 157 122 177 214 27 242 200 172 173 198 185 207 191 193 207 217 220 217 215 229 210 185 208 191 203 209 206 229 225 267 159 233 248 344 297 289 259 253 256 257
151 157 174 192 169 147 114 229 230 102 227 177 156 165 193 193 201 210 214 216 210 218 222 221 235 180 189 201 192 184 224 231 291 192 263 245 252 271 248 233 249 259 270 265 263
145 152 161 177 175 153 183 214 177 150 293 233 170 170 179 189 195 194 215 228 223 204 226 247 263 201 200 210 229 229 208 202 215 230 238 245 258 266 249 238 251 254 263 271 261
120 117 122 142 119 173 212 210 139 236 8 289 244 174 186 184 196 194 199 218 227 222 211 228 236 156 173 205 196 210 216 232 243 231 244 269 258 24 38 2 311 308 345 306 295
139 126 335 144 143 155 231 144 115 153 43 293 326 93 195 178 193 194 215 200 342 214 218 214 209 229 223 227 243 225 213 197 213 209 232 258 257 159 102 60 17 41 354 338 317
93 103 334 181 178 176 216 103 105 89 52 17 21 5 352 146 150 191 205 183 98 195 223 195 216 224 229 272 258 237 225 239 249 265 244 236 255 232 249 277 281 296 287 259 304
123 119 88 59 316 128 130 79 86 342 121 143 299 323 47 1 2 108 205 183 222 231 97 85 285 256 263 254 307 219 228 229 234 241 241 243 265 261 273 283 274 273 288 298 261
25 75 77 144 123 139 101 135 145 147 69 216 179 140 116 266 258 241 231 199 229 159 119 146 264 342 328 342 327 310 300 279 249 252 248 261 260 267 268 269 273 284 270 283 280
112 135 94 70 154 130 121 163 159 105 156 229 222 209 205 217 252 311 267 268 251 203 224 180 247 259 275 291 288 260 287 278 272 273 273 270 270 274 286 301 299 297 289 283 272
146 153 113 130 163 164 168 164 158 149 192 295 174 166 235 278 280 273 280 278 287 276 246 189 210 206 261 269 225 254 270 274 274 279 271 260 266 277 280 281 271 266 263 257 257